This is the latest recevied weather packets stored in our database for station/object WB3IGR. If no packets are shown the sender has not sent any weather packets the latest 10 day(s).
| Time | Temp. | Humidity | Pressure | Rain* | Wind** | Luminosity | Snow |
|---|---|---|---|---|---|---|---|
| 1778079186 | 15.56° C | 99% | 1010.5 hPa | 1.78 mm | - | 79 W/m² | - |
| 1778078884 | 15.56° C | 99% | 1010.9 hPa | 3.05 mm | - | 64 W/m² | - |
| 1778078580 | 15.56° C | 99% | 1010.5 hPa | 1.27 mm | - | 59 W/m² | - |
| 1778078278 | 16.11° C | 99% | 1010.3 hPa | 1.78 mm | - | 71 W/m² | - |
| 1778077974 | 16.11° C | 99% | 1010.1 hPa | 1.78 mm | - | 108 W/m² | - |
| 1778077673 | 16.11° C | 99% | 1010.1 hPa | 1.78 mm | - | 181 W/m² | - |
| 1778077371 | 16.11° C | 99% | 1010.1 hPa | 1.27 mm | - | 330 W/m² | - |
| 1778077069 | 15.56° C | 99% | 1010 hPa | 1.27 mm | - | 199 W/m² | - |
| 1778076767 | 15.56° C | 99% | 1010.3 hPa | 1.78 mm | - | 173 W/m² | - |
| 1778076464 | 15.56° C | 99% | 1009.9 hPa | 3.05 mm | - | 101 W/m² | - |
| 1778076161 | 15.56° C | 99% | 1010 hPa | 3.05 mm | - | 54 W/m² | - |
| 1778075858 | 15.56° C | 99% | 1010.1 hPa | 3.56 mm | - | 59 W/m² | - |
| 1778075554 | 15.56° C | 99% | 1010.4 hPa | 3.05 mm | - | 48 W/m² | - |
| 1778075251 | 15.56° C | 98% | 1010.3 hPa | 1.27 mm | - | 42 W/m² | - |
| 1778074948 | 15.56° C | 98% | 1010.1 hPa | 0 mm | - | 69 W/m² | - |
| 1778074645 | 15.56° C | 98% | 1010.2 hPa | 0 mm | - | 75 W/m² | - |
| 1778074341 | 15.56° C | 98% | 1010.3 hPa | 0 mm | - | 64 W/m² | - |
| 1778074038 | 15.56° C | 98% | 1010.3 hPa | 1.78 mm | - | 60 W/m² | - |
| 1778073735 | 15.56° C | 98% | 1010.2 hPa | 1.78 mm | - | 88 W/m² | - |
| 1778073434 | 16.11° C | 98% | 1010.1 hPa | 0 mm | - | 115 W/m² | - |
| 1778073129 | 16.11° C | 98% | 1010.3 hPa | 1.27 mm | - | 128 W/m² | - |
| 1778072826 | 15.56° C | 97% | 1010.4 hPa | 1.78 mm | - | 121 W/m² | - |
| 1778072523 | 15.56° C | 97% | 1010.6 hPa | 1.78 mm | - | 81 W/m² | - |
| 1778072221 | 15.56° C | 97% | 1010.4 hPa | 0 mm | - | 61 W/m² | - |
| 1778071918 | 15.56° C | 97% | 1010.7 hPa | 1.27 mm | - | 39 W/m² | - |
* Rain latest hour (hover to see other rain measurements)
** Current wind speed in m/s (hover to see current wind gust speed)